User: anonymous   Login
Location: Newark
(45.5167°N, 11.1667°E)
Time: 23:17:03
(UTC+00:00)
Language:

A-11 Canister half - Orbit

View from above orbital plane
View from above orbital plane
View from above satellite
View from above satellite

Ground track
Ground track

The orbit data is extracted from the following two-line orbital elements,

1    51U 60009C   19342.03598085 -.00000114  00000-0 -28886-3 0  9991
2    51  47.2111 222.7086 0106389 312.5652  46.6196 12.18274292640620
Epoch (UTC): 08 December 2019 00:51:48
Eccentricity: 0.0106389
inclination: 47.2111°
perigee height: 1515 km
apogee height: 1685 km
right ascension of ascending node: 222.7086°
argument of perigee: 312.5652°
revolutions per day: 12.18274292
mean anomaly at epoch: 46.6196°
orbit number at epoch: 64062

The dashed part of the orbit path shows where the satellite is in the earth's shadow,  

DLR